Overview Statistics Trail Chart Weather Telemetry Raw packets
 

This is the latest recevied weather packets stored in our database for station/object KO4LCK. If no packets are shown the sender has not sent any weather packets the latest 10 day(s).

<< 90 91 92 93 94 95 96 >>
Time Temp. Humidity Pressure Rain* Wind** Luminosity Snow
1787957208 33.33° C 44% 1016.6 hPa 0 mm - 47 W/m² -
1787956903 33.89° C 47% 1016.3 hPa 0 mm - 61 W/m² -
1787956603 33.33° C 46% 1016.3 hPa 0 mm - 140 W/m² -
1787956297 33.33° C 44% 1016.3 hPa 0 mm - 156 W/m² -
1787955993 33.33° C 45% 1016.3 hPa 0 mm - 172 W/m² -
1787955688 33.89° C 44% 1016.3 hPa 0 mm - 185 W/m² -
1787955384 34.44° C 46% 1016 hPa 0 mm - 202 W/m² -
1787955083 33.89° C 44% 1016.4 hPa 0 mm - 217 W/m² -
1787954780 33.89° C 44% 1016.1 hPa 0 mm - 234 W/m² -
1787954475 33.89° C 45% 1016.4 hPa 0 mm - 252 W/m² -
1787954174 33.33° C 46% 1016.4 hPa 0 mm - 266 W/m² -
1787953874 33.33° C 47% 1016.4 hPa 0 mm - 285 W/m² -
1787953568 33.33° C 47% 1016.5 hPa 0 mm - 304 W/m² -
1787953263 33.89° C 46% 1016.5 hPa 0 mm - 320 W/m² -
1787952960 33.89° C 48% 1016.4 hPa 0 mm - 334 W/m² -
1787952655 33.33° C 48% 1016.1 hPa 0 mm - 371 W/m² -
1787952354 33.33° C 50% 1016.3 hPa 0 mm - 374 W/m² -
1787952051 33.89° C 49% 1016.3 hPa 0 mm - 144 W/m² -
1787951750 33.33° C 50% 1016.3 hPa 0 mm - 407 W/m² -
1787951446 32.78° C 50% 1016.4 hPa 0 mm - 434 W/m² -
1787951142 33.33° C 49% 1016.4 hPa 0 mm - 104 W/m² -
1787950838 33.33° C 49% 1016.3 hPa 0 mm - 90 W/m² -
1787950533 34.44° C 46% 1016.3 hPa 0 mm - 117 W/m² -
1787950229 33.89° C 47% 1016.1 hPa 0 mm - 394 W/m² -
1787949925 33.33° C 48% 1016.3 hPa 0 mm - 530 W/m² -

* Rain latest hour (hover to see other rain measurements)
** Current wind speed in m/s (hover to see current wind gust speed)